Regional Weather Roundup
Issued by NWS

Home | Current Version | Previous Version | Text Only | Print | Product List | Glossary Off
Versions: 1 2 3 4 5 6 7 8 9 10 11 12 13 14 15 16 17 18 19 20 21 22 23 24 25 26 27 28 29 30 31 32 33 34 35 36 37 38 39 40 41 42 43 44 45 46 47 48 49 50

000
ASUS43 KTOP 041759
RWRKS

WEATHER ROUNDUP FOR KANSAS
NATIONAL WEATHER SERVICE GOODLAND KS
100 PM CDT SAT JUL 04 2015

NOTE:  "FAIR" INDICATES FEW OR NO CLOUDS BELOW 12,000 FEET WITH NO
SIGNIFICANT WEATHER AND/OR OBSTRUCTIONS TO VISIBILITY.

KSZ001>006-013>018-027>032-041>047-041900-
NORTHWEST KANSAS

CITY           SKY/WX    TMP DP  RH WIND       PRES   REMARKS
GOODLAND       SUNNY     87  60  40 S16       29.95F
6HR MIN TEMP:  63; 6HR MAX TEMP:  87;

HAYS           SUNNY     84  63  48 S17G26    29.97F
HILL CITY      LGT RAIN  87  62  43 SE12G31   29.95F
6HR MIN TEMP:  62; 6HR MAX TEMP:  90; 6HR PCP: TRACE;

RUSSELL        SUNNY     84  64  50 S12       29.96F
6HR MIN TEMP:  64; 6HR MAX TEMP:  85; 6HR PCP: TRACE;

$$

KSZ061>065-074>080-084>089-041900-
SOUTHWEST KANSAS

CITY           SKY/WX    TMP DP  RH WIND       PRES   REMARKS
DODGE CITY     SUNNY     85  61  44 SE15G24   29.99F
6HR MIN TEMP:  63; 6HR MAX TEMP:  85;

ELKHART          N/A     88  61  40 S18         N/A
GARDEN CITY    SUNNY     83  64  52 S16       29.97F
6HR MIN TEMP:  64; 6HR MAX TEMP:  84;

GREAT BEND     SUNNY     82  64  54 SE13      29.99S
LIBERAL        SUNNY     88  63  42 S15       30.01S
$$

KSZ066>073-081>083-090>101-041900-
SOUTHEAST KANSAS

CITY           SKY/WX    TMP DP  RH WIND       PRES   REMARKS
CHANUTE        SUNNY     82  61  48 E6        30.00F
6HR MIN TEMP:  65; 6HR MAX TEMP:  82;

COFFEYVILLE    MOSUNNY   85  66  53 VRB3      29.98F
6HR MIN TEMP:  67; 6HR MAX TEMP:  87;

HUTCHINSON     SUNNY     85  63  47 S13       29.98F
6HR MIN TEMP:  62; 6HR MAX TEMP:  85;

MEDICINE LODGE   N/A     86  64  47 SE10      29.97S
NEWTON         SUNNY     82  61  47 SE12      30.01F
PARSONS        MOSUNNY   85  68  56 VRB5      30.00F
6HR MIN TEMP:  67; 6HR MAX TEMP:  85;

WICHITA INTL   MOSUNNY   86  64  47 E8        29.97F
6HR MIN TEMP:  64; 6HR MAX TEMP:  86;

WICHITA JABRA  SUNNY     84  64  50 VRB6      29.98F
6HR MIN TEMP:  62; 6HR MAX TEMP:  84;

WINFIELD       SUNNY     86  64  47 SE8       29.98F
6HR MIN TEMP:  67; 6HR MAX TEMP:  86;

$$

KSZ007>012-019>026-033>040-048>060-102>105-041900-
NORTHEAST KANSAS

CITY           SKY/WX    TMP DP  RH WIND       PRES   REMARKS
CONCORDIA      MOSUNNY   81  63  54 S12       29.99F
6HR MIN TEMP:  60; 6HR MAX TEMP:  82;

EMPORIA        MOSUNNY   82  60  47 MISG      30.00F
6HR MIN TEMP:  58; 6HR MAX TEMP:  82;

LAWRENCE       MOSUNNY   80  62  54 SE7       30.01F
6HR MIN TEMP:  59; 6HR MAX TEMP:  80;

MANHATTAN      MOSUNNY   83  61  47 SE9       29.98F
6HR MIN TEMP:  59; 6HR MAX TEMP:  84;

OLATHE IND     SUNNY     80  59  48 VRB6      30.03S
6HR MIN TEMP:  62; 6HR MAX TEMP:  80;

OLATHE EXE     SUNNY     77  59  53 VRB6      30.02S
6HR MIN TEMP:  61; 6HR MAX TEMP:  78;

SALINA         FAIR      87  60  40 SE16      29.97F
6HR MIN TEMP:  64; 6HR MAX TEMP:  88;

TOPEKA BILLARD SUNNY     80  62  54 SE9       30.00F
6HR MIN TEMP:  61; 6HR MAX TEMP:  80;

TOPEKA FORBES  SUNNY     81  63  54 E8        30.01F
6HR MIN TEMP:  62; 6HR MAX TEMP:  81;

$$



USA.gov is the U.S. government's official web portal to all federal, state and local government web resources and services.